Location: Canova
(45.7333°N, 9.4000°E)
Time: 01:07:11
(UTC+00:00)

Daily predictions for brighter satellites

Satellite Brightness Start Highest point End
(mag) Time Altitude Azimuth Time Altitude Azimuth Time Altitude Azimuth
Cosmos 2278 Rocket 4.2 00:36:49 23° N 00:36:49 23° N 00:38:58 10° NNE
Cosmos 1943 Rocket 4.4 00:49:36 18° ENE 00:49:36 18° ENE 00:51:44 10° NE
CZ-2D R/B 4.2 00:44:54 10° NNE 00:46:59 23° NE 00:46:59 23° NE
ATLAS 5 CENTAUR R/B 4.3 01:00:22 17° NNE 01:00:22 17° NNE 01:01:53 10° NNE
USA 267 4.4 01:01:34 10° NE 01:07:22 36° N 01:08:08 34° NNW
CENTAUR R/B 3.9 01:12:29 29° E 01:12:29 29° E 01:17:10 10° NE
Lacrosse 5 3.9 01:18:10 24° NNE 01:18:10 24° NNE 01:21:41 10° ENE
SL-16 R/B 3.9 01:24:47 28° NNW 01:24:47 28° NNW 01:27:35 10° NNW
ADEOS II 3.5 01:25:41 10° NNE 01:29:29 34° ENE 01:29:29 34° ENE
USA 238 DEB 3.9 01:38:22 67° N 01:38:22 67° N 01:44:25 10° NE
USA 238 3.8 01:38:28 67° NNE 01:38:28 67° NNE 01:44:32 10° NE
Resurs 1-4 Rocket 3.5 01:42:21 10° N 01:45:12 31° N 01:45:12 31° N
BREEZE-M DEB (TANK) 3.7 01:48:42 77° ESE 01:48:42 77° ESE 02:01:49 10° E
Cosmos 2369 Rocket 2.7 01:52:52 57° ENE 01:52:52 57° ENE 01:57:38 10° NNE
ARIANE 5 R/B 3.1 01:57:31 10° NNE 02:01:35 55° NE 02:01:35 55° NE
BREEZE-M DEB (TANK) 4.2 02:12:29 49° SW 02:15:52 76° SSE 02:20:50 10° E
Cosmos 2278 Rocket 4.4 02:18:40 12° NW 02:18:52 13° NW 02:21:14 10° NNW
NOSS 3-2 (A) 3.7 02:20:34 52° NW 02:20:43 52° NW 02:27:15 10° NNE
SME Rocket 4.4 02:14:30 10° N 02:20:15 43° NW 02:20:15 43° NW
ATLAS 3B R/B 2.4 02:21:10 73° SSW 02:21:55 89° ESE 02:28:33 10° NE
Atlas Centaur 2 4.4 02:26:16 16° SSE 02:26:16 16° SSE 02:28:36 10° SE
NOSS 3-2 (C) 3.4 02:24:57 67° WNW 02:25:16 68° NW 02:31:55 10° NE
BREEZE-M DEB (TANK) 3.8 02:28:18 52° SE 02:28:18 52° SE 02:31:03 10° ENE
CZ-2D R/B 3.7 02:25:31 10° N 02:28:17 22° NW 02:28:17 22° NW
Unknown 4.5 02:31:08 48° NE 02:31:08 48° NE 02:34:14 10° ENE
Cosmos 1943 Rocket 2.3 02:31:09 58° NW 02:31:09 58° NW 02:36:21 10° NNE
Unknown 4.4 02:32:44 50° NE 02:32:44 50° NE 02:35:54 10° ENE
SL-4 R/B 4.0 02:36:21 17° ESE 02:36:21 17° ESE 02:37:18 10° ESE
Cosmos 1707 Rocket 3.9 02:37:24 61° N 02:37:24 61° N 02:41:04 10° N
Unknown 4.2 02:39:08 55° NNE 02:39:08 55° NNE 02:42:33 10° NE
Unknown 4.1 02:40:45 56° NNE 02:40:45 56° NNE 02:44:14 10° NE
Unknown 4.1 02:41:08 56° NNE 02:41:08 56° NNE 02:44:38 10° NE
Unknown 4.0 02:43:54 57° NNE 02:43:54 57° NNE 02:47:31 10° NE
ATLAS 5 CENTAUR R/B 4.3 02:42:06 10° NNW 02:44:02 12° N 02:46:04 10° NNE
Cosmos 1733 Rocket 3.4 02:40:12 10° N 02:44:39 65° E 02:46:46 30° SSE
Iridium 4 Rocket 3.4 02:43:48 47° SE 02:44:49 63° E 02:49:00 10° N
Unknown 4.0 02:45:36 57° N 02:45:36 57° N 02:49:17 10° NE
Unknown 4.0 02:46:27 58° N 02:46:27 58° N 02:50:10 10° NE
Cosmos 2344 3.8 02:44:31 42° W 02:46:53 57° NW 02:55:15 10° NE
Unknown 4.0 02:48:46 57° N 02:48:46 57° N 02:52:34 10° NE
Unknown 3.9 02:50:18 58° N 02:50:18 58° N 02:54:11 10° NE
Unknown 3.9 02:50:48 57° N 02:50:48 57° N 02:54:41 10° NE
Cosmos 1315 Rocket 4.4 02:48:13 18° SSE 02:50:46 35° E 02:54:33 10° NNE
Unknown 3.9 02:53:25 58° NNW 02:53:25 58° NNW 02:57:25 10° NE
IDEFIX/ARIANE 42P 3.4 02:48:49 10° NNE 02:53:56 48° E 02:58:45 11° S
Cosmos 1782 4.2 02:55:54 26° NNW 02:55:54 26° NNW 02:58:02 10° N
Cosmos 44 3.2 02:53:57 67° WSW 02:54:30 77° NW 02:59:19 10° NNE
Unknown 3.9 02:56:40 54° NNW 02:56:42 54° NNW 03:00:48 10° NE
USA 81 4.4 02:53:59 16° S 02:58:15 65° E 03:03:30 10° N
Unknown 3.9 02:58:16 53° NNW 02:58:22 53° NNW 03:02:27 10° NE
Cosmos 1092 Rocket 3.9 02:56:51 41° SSW 02:59:05 70° W 03:05:15 10° N
BREEZE-M DEB (TANK) 4.1 02:47:26 10° WNW 03:00:00 70° N 03:03:42 10° E
Unknown 4.0 02:59:51 52° NW 03:00:02 52° NNW 03:04:06 10° NE
Lacrosse 5 2.4 02:57:25 16° NW 03:01:21 58° NE 03:06:20 10° ESE
CENTAUR R/B 2.7 02:59:40 43° W 03:01:35 59° NW 03:08:40 10° NE
Unknown 4.0 03:01:28 50° NW 03:01:44 51° NNW 03:05:47 10° NE
Spot 4 Rocket 4.5 02:59:52 10° N 03:04:40 40° WNW 03:04:57 40° WNW
Unknown 4.0 03:04:39 47° NW 03:05:03 49° NNW 03:09:06 10° NE
Cosmos 1340 3.7 03:01:48 10° N 03:05:29 46° ENE 03:09:08 10° SSE
Unknown 4.2 03:05:31 41° NW 03:05:56 42° NNW 03:09:49 10° NE
Cosmos 1400 Rocket 2.9 03:06:43 57° NW 03:06:43 57° NW 03:10:11 10° N
Cosmos 2263 4.5 03:05:23 43° W 03:06:31 49° WNW 03:11:58 10° NNE
Unknown 4.1 03:06:18 46° NW 03:06:46 48° NNW 03:10:48 10° NE
Unknown 4.1 03:07:51 44° NW 03:08:23 48° NNW 03:12:26 10° NE
Unknown 4.1 03:09:23 44° NW 03:09:59 48° NNW 03:14:02 10° NE
ADEOS II 2.9 03:05:35 10° N 03:10:11 32° WNW 03:10:25 32° WNW
Unknown 4.2 03:11:16 41° NW 03:11:59 46° NNW 03:16:00 10° NE
Unknown 4.1 03:12:29 42° NW 03:13:13 47° NNW 03:17:14 10° NE
SL-24 DEB 4.2 03:13:51 37° SSW 03:15:30 59° W 03:20:11 10° NNW
Unknown 4.2 03:15:40 39° WNW 03:16:33 46° NNW 03:20:33 10° NE
Meteor 1-5 Rocket 4.0 03:11:10 10° NNW 03:16:38 78° W 03:22:16 10° S
Unknown 4.2 03:17:16 38° WNW 03:18:13 45° NNW 03:22:13 10° NE
Unknown 4.3 03:17:48 35° NW 03:18:46 42° NNW 03:22:42 10° NE
Unknown 4.4 03:19:03 35° WNW 03:20:07 42° NNW 03:24:05 10° NE
Unknown 4.3 03:20:28 35° WNW 03:21:34 44° NNW 03:25:33 10° NE
Cosmos 1538 Rocket 4.3 03:17:53 15° S 03:22:09 67° ESE 03:27:17 10° NNE
Unknown 4.3 03:22:04 34° WNW 03:23:15 43° NNW 03:27:13 10° NE
Cosmos 1656 Rocket 3.8 03:21:44 33° SW 03:24:09 58° WNW 03:29:45 10° NNE
Unknown 4.4 03:25:15 31° WNW 03:26:34 42° NNW 03:30:32 10° NE
CZ-2C R/B 3.9 03:23:23 10° N 03:26:29 28° WNW 03:26:29 28° WNW
SeaSat 1 2.8 03:21:58 10° NNE 03:26:54 64° ESE 03:31:18 13° SSW
Unknown 4.4 03:26:50 30° WNW 03:28:14 41° NNW 03:32:11 10° NE
Unknown 4.4 03:28:26 29° WNW 03:29:54 41° NNW 03:33:51 10° NE
Cosmos 1346 Rocket 2.7 03:25:52 10° NNW 03:29:59 83° W 03:34:04 10° S
Cosmos 2227 Rocket 4.1 03:25:13 10° N 03:30:14 31° NE 03:35:12 10° ESE
Unknown 4.5 03:30:03 28° WNW 03:31:36 40° NNW 03:35:32 10° NE
Unknown 4.0 03:30:49 24° NNW 03:32:01 35° NNE 03:34:42 10° E
Cosmos 1536 2.7 03:28:29 10° N 03:32:29 87° W 03:36:28 10° S
Cosmos 1703 Rocket 4.2 03:28:41 10° S 03:33:01 57° E 03:37:22 10° NNE
H-2A R/B 2.2 03:29:54 10° NNE 03:33:45 86° ESE 03:36:58 14° SSW
Cosmos 2219 4.2 03:28:30 10° NNW 03:34:02 50° ENE 03:39:31 10° SE
Cosmos 2369 Rocket 3.5 03:34:40 21° WNW 03:36:30 25° NW 03:41:06 10° N
Cosmos 2084 Rocket 3.6 03:33:51 13° NW 03:37:38 49° WSW 03:41:49 10° SSE
EP 1 4.2 03:37:15 48° SSW 03:37:53 81° ESE 03:40:28 10° NE
Cosmos 2297 Rocket 3.8 03:35:36 10° NNW 03:40:51 37° NE 03:46:03 10° ESE
ARIANE 5 R/B 4.1 03:37:54 10° NNW 03:41:10 17° WNW 03:41:55 17° WNW
Cosmos 1553 Rocket 3.9 03:36:37 10° NNW 03:42:50 68° W 03:48:55 10° S
Cosmos 1500 3.4 03:40:25 10° NNW 03:44:00 44° W 03:47:35 10° SSW
Cosmos 1862 Rocket 4.1 03:42:47 24° SW 03:44:55 40° WNW 03:49:10 10° N
Cosmos 2242 Rocket 3.7 03:42:06 14° SSW 03:45:52 57° WNW 03:50:19 10° N
PAYLOAD A 3.9 03:45:31 10° NNE 03:50:17 82° ESE 03:54:59 10° SSW
ADEOS 3.8 03:46:46 10° N 03:51:48 49° WNW 03:56:32 11° SW
MSX 3.8 03:46:24 10° NNE 03:52:11 83° WNW 03:57:55 10° SSW
Okean 1-7 3.2 03:49:16 10° S 03:53:39 79° E 03:58:04 10° NNE
USA 215 3.8 03:50:23 10° ENE 03:56:48 55° SE 04:03:11 10° SSW
CZ-4B R/B 3.4 03:54:55 10° NNE 03:59:27 72° E 04:03:55 10° S
Aureole 2 Rocket 3.0 04:01:02 22° WNW 04:01:23 23° WNW 04:03:36 10° N
Meteor 2-13 Rocket 4.4 04:02:02 10° S 04:08:12 82° W 04:14:24 10° N
Meteor 1-27 Rocket 4.2 04:05:10 10° SW 04:10:41 41° WNW 04:16:08 10° N
COSMO-SKYMED 1 3.6 04:07:04 10° SSE 04:11:15 50° ENE 04:15:29 10° N
Atlas Centaur 2 4.4 04:09:38 10° SW 04:12:19 12° SSW 04:15:11 10° S
SL-4 R/B 3.3 04:12:02 15° WSW 04:12:56 16° SW 04:15:15 10° S
Cosmos 1812 3.9 04:10:46 15° WSW 04:13:01 23° WNW 04:16:10 10° NNW
ATLAS 5 CENTAUR R/B 4.1 04:10:57 10° NW 04:13:16 16° N 04:17:15 10° NE
ATLAS 3B R/B 3.8 04:08:26 12° W 04:13:25 28° NNW 04:19:02 10° NNE
Cosmos 1908 Rocket 4.1 04:10:26 10° NNW 04:14:23 35° W 04:18:20 10° SSW
Cosmos 1743 3.0 04:10:40 10° N 04:14:34 72° E 04:18:28 10° SSE
Cosmos 1943 Rocket 4.1 04:13:19 10° WNW 04:15:52 13° NW 04:18:25 10° N
Okean 2 Rocket 3.6 04:13:20 10° N 04:17:52 65° E 04:22:20 10° SSE
Cosmos 44 Rocket 3.5 04:15:12 10° SW 04:20:09 56° NW 04:24:59 10° NNE
Cosmos 1655 Rocket 4.3 04:17:14 10° SSW 04:23:10 46° WNW 04:29:12 10° N
S3M 4.4 04:19:40 10° NNW 04:25:25 42° W 04:31:13 10° SSW
Cosmos 2112 Rocket 4.4 04:20:47 10° S 04:26:01 71° ESE 04:31:15 10° NNE
Cosmos 1315 Rocket 4.2 04:24:13 10° WSW 04:27:25 21° WNW 04:30:39 10° NNW
CZ-4B R/B 3.7 04:23:52 10° N 04:27:28 54° WNW 04:31:01 10° SSW
ATLAS 5 CENTAUR R/B 4.5 04:28:22 10° NNW 04:31:05 14° NNE 04:33:59 10° NE
ATLAS CENTAUR R/B 2.6 04:27:02 10° NNW 04:31:26 48° NE 04:35:27 10° ESE
USA 267 3.7 04:25:19 10° ESE 04:31:46 64° NNE 04:38:14 10° NW
Meteor PRIRODA 3.6 04:28:57 10° N 04:32:39 71° WNW 04:36:20 10° SSW
IDEFIX/ARIANE 42P 3.7 04:28:57 10° N 04:33:15 26° WNW 04:37:31 10° WSW
Okean O Rocket 2.8 04:30:50 10° NNE 04:35:10 48° E 04:39:28 10° S
Cosmos 1656 4.2 04:31:26 10° SSW 04:37:03 65° ESE 04:42:42 10° NNE
Cosmos 1666 3.6 04:35:23 10° NNW 04:38:33 26° W 04:41:43 10° SSW
CZ-2C R/B 2.8 04:35:58 10° N 04:40:37 44° WNW 04:45:23 10° SW
MOS 1-B 4.4 04:36:37 10° NNE 04:42:28 87° WNW 04:48:17 10° SSW
BREEZE-M DEB (TANK) 4.1 04:38:29 10° SW 04:45:33 34° SSE 04:48:24 10° E
